451  
SXUS51 KOKX 272057  
OSOOKX  
NEW YORK CITY METROPOLITAN AREA WEATHER ROUNDUP  
NATIONAL WEATHER SERVICE NEW YORK NY  
400 PM EST THU FEB 27 2020  
 
CITY SKY/WX TMP DP RH WIND PRES REMARKS  
CENTRAL PARK FAIR 40 14 34 W14G29 29.63R WCI 32  
LAGUARDIA ARPT FAIR 42 12 29 W25G44 29.61R  
KENNEDY INTL FAIR 41 18 39 W29G43 29.62R  
NEWARK LIBERTY FAIR 41 12 30 W29G37 29.62R  
TETERBORO ARPT FAIR 40 16 37 W21G33 29.60R WCI 30  
BRONX LEHMAN C N/A 39 14 35 W22G36 N/A WCI 29  
QUEENS COLLEGE N/A 41 16 36 W25G40 N/A  
BREEZY POINT N/A 41 N/A N/A W22G33 N/A  
BROOKLYN COLL N/A 41 14 33 W28G43 N/A  
STATEN ISLAND N/A 41 16 36 W22G37 N/A  
 
>>>>>>>>>>>>>>>>>>>>>>>>>>>>>>>>> KEY <<<<<<<<<<<<<<<<<<<<<<<<<<<<<<<  
> SKY/WX - SKY CONDITION/PRESENT : R : WCI - WIND CHILL INDEX <  
> WEATHER : E : VSB - VISIBILITY IN MILES <  
> TMP - TEMPERATURE IN DEG F : M : HX - HEAT INDEX <  
> DP - DEW POINT TEMPERATURE : A : TC - TEMPERATURE IN <  
> RH - RELATIVE HUMIDITY : R : CELSIUS <  
> WIND - DIRECTION/SPEED (MPH) : K : VRB - VARIABLE WIND DIR <  
> PRES - PRESSURE (IN HG) : S : <  
>>>>>>>>>>>>>>>>>>>>>>>>>>>>>>>>> KEY <<<<<<<<<<<<<<<<<<<<<<<<<<<<<<<  
 
 
CLICK HERE TO GO TO PREVIOUS BULLETINS.

The Nexlab NY Page
The Nexlab NJ Page
The Nexlab CT Page Main Text Page